sat.trackr.live / text

‹ back to catalog

STARLINK-35315

NORAD 66543 · 2025-265AD

PAYLOAD ACTIVE UNKNOWN

§ Identity

Operator
Country
US
Launch date
2025-11-19
Launch site
AFETR
Launch vehicle
Mass (kg)
RCS (m²)

Purposes: comms

External: N2YO · Heavens-Above · Gunter

§ Orbital elements

Epoch: 2026-09-20T16:34:34.340736Z

Period
94.27 min
Inclination
42.9989°
Eccentricity
0.0000500
Mean motion
15.27592416 rev/d
Perigee alt
482.7 km
Apogee alt
483.4 km
Semi-major
6,861.1 km
B*
3.0839e-4
RAAN
256.8969°
Arg perigee
287.3826°
Mean anomaly
72.6970°
Rev number
4,693

§ Raw data

STARLINK-353151 66543U 25265AD  26263.69067524  .00008237  00000+0  30839-3 0  99972 66543  42.9989 256.8969 0000500 287.3826  72.6970 15.27592416 46938

JSON: /api/v1/satellites/66543 · /tle

For live sub-satellite position, see the globe view (requires WebGL).

§ Visibility from observer

Set your observer location to see the next 7 days of passes ≥ 10°. The values pass through the URL so the page stays shareable.

No JS? Fill the form by hand. The geolocation button needs JavaScript.